Terug naar catalogus

STARLINK-36740

ActiefCommunicatieSSO
NORAD 67741·PAYLOAD·🇺🇸 United States

Gelanceerd Feb 11, 2026 vanaf Vandenberg Space Force Base

Loading…

Volgende Passages (komende 24 uur)

TLE

VersSource: CelesTrak SupGP

Epoch: Sep 15, 2026, 04:24 UTC

1 67741C 26026W   26258.18381944 -.00035654  00000+0 -11068-2 0  2582
2 67741  97.2850 310.1577 0000983  86.0777 151.6170 15.33455723    17

Volg STARLINK-36740 in realtime met AllMySat

Download on the App Store